TOURFACTS.DK  
Stats and Facts from Tour de France.

Tour de France 2018 starts in 16 days
  Riders   Stages   Teams   Summits   Yearly  


 
Search by year

After 2017 - Stage 21:
 14824 starters.
  5132 different riders.
  639 teams.
  2232 stages.
  456 restdays.
  439589.60 km.
  5653 abandonnees.


Top 3
GC
Christopher Froome86:20:55
Rigoberto Urán86:21:49
Romain Bardet86:23:15
Climb
Warren Barguil169 pt.
Primoz Roglic80 pt.
Thomas De Gendt64 pt.
Sprint
Michael Matthews359 pt.
André Greipel234 pt.
Edvald Boasson Hagen220 pt.
Youth
Simon Yates86:27:09
Louis Meintjes86:29:15
Emanuel Buchmann86:54:16
Facts from Tour de France 2017
  |   Stages.  |   Stage winners.  |   Days in yellow  |   Average speed.  |   Route.  |   Teams.  |   All riders.  |   Rookies.  |  

  |   Withdrawls.  |   GC.  |   Polka  |   Green  |   White  |   Summits. (In tour)  |   Miscellaneous.  |  

Stage 20 on 22 - 07 - 2017
         Owning:    Christopher Froome      Warren Barguil      Michael Matthews      Simon Yates  

Pick a stage:  1 2 3 4 5 6 7 8 9 10 11 12 13 14 15 16 17 18 19 20 21
  MarseilleMarseille | Dist: 22.50 km.

Average speed for all riders in stage:  43,851 km./hr.
    Place:Name:Team:Time:Km/h:
POLMaciej BodnarDEUBora–Hansgrohe00:28:15  +  00:00:00=47,788 
POLMichal KwiatkowskiGBRSky Procycling00:28:16  +  00:00:01=47,759 
KENChristopher FroomeGBRSky Procycling00:28:21  +  00:00:06=47,619 
4 GERTony MartinCHETeam Katusha - Alpecin00:28:29  +  00:00:14=47,396 
5 RSADaryl ImpeyAUSOrica - Scott00:28:35  +  00:00:20=47,230 
6 ESPAlberto ContadorUSATrek - Segafredo00:28:36  +  00:00:21=47,203 
7 GERNikias ArndtDEUTeam Sunweb00:28:43  +  00:00:28=47,011 
8 COLRigoberto UránUSACannondale-Drapac Pro Cycling ..00:28:46  +  00:00:31=46,929 
9 SUIStefan KüngUSABMC Racing Team00:28:49  +  00:00:34=46,848 
10 FRASylvain ChavanelFRADirect Energie00:28:52  +  00:00:37=46,767 
11 NZLJack BauerBELQuick-Step Floors00:28:56  +  00:00:41=46,659 
12 GERJasha SütterlinESPMovistar Team00:28:57  +  00:00:42=46,632 
13 GERNils PolittCHETeam Katusha - Alpecin00:28:58  +  00:00:43=46,605 
14 ITADamiano CarusoUSABMC Racing Team00:29:00  +  00:00:45=46,552 
15 ITAFabio AruKAZAstana Pro Team00:29:00  +  00:00:45=46,552 
16 SLOPrimoz RoglicNLDTeam Lotto NL - Jumbo00:29:04  +  00:00:49=46,445 
17 ESPMikel Landa MeanaGBRSky Procycling00:29:06  +  00:00:51=46,392 
18 FRATony GallopinBELLotto Soudal00:29:11  +  00:00:56=46,259 
19 USATaylor PhinneyUSACannondale-Drapac Pro Cycling ..00:29:21  +  00:01:06=45,997 
20 BLRVasil KiryienkaGBRSky Procycling00:29:22  +  00:01:07=45,970 
21 FRAWarren BarguilDEUTeam Sunweb00:29:24  +  00:01:09=45,918 
22 FRAAlexis VuillermozFRAAg2r La Mondiale00:29:26  +  00:01:11=45,866 
23 BELTiesj BenootBELLotto Soudal00:29:36  +  00:01:21=45,608 
24 NEDDylan Van BaarleUSACannondale-Drapac Pro Cycling ..00:29:37  +  00:01:22=45,582 
25 FRANicolas RocheUSABMC Racing Team00:29:40  +  00:01:25=45,506 
26 ESPImanol ErvitiESPMovistar Team00:29:41  +  00:01:26=45,480 
27 FRALilian CalmejaneFRADirect Energie00:29:42  +  00:01:27=45,455 
28 ESPJonathan CastroviejoESPMovistar Team00:29:42  +  00:01:27=45,455 
29 DENLars BakBELLotto Soudal00:29:42  +  00:01:27=45,455 
30 COLCarlos Alberto BetancurESPMovistar Team00:29:43  +  00:01:28=45,429 
31 AUSJay McCarthyDEUBora–Hansgrohe00:29:43  +  00:01:28=45,429 
32 ENGSimon YatesAUSOrica - Scott00:29:49  +  00:01:34=45,277 
33 RSALouis MeintjesUAEUAE Team Emirates00:29:49  +  00:01:34=45,277 
34 NEDBauke MollemaUSATrek - Segafredo00:29:51  +  00:01:36=45,226 
35 KAZAlexey LutsenkoKAZAstana Pro Team00:29:51  +  00:01:36=45,226 
36 COLNairo QuintanaESPMovistar Team00:29:57  +  00:01:42=45,075 
37 KAZDmitriy GruzdevKAZAstana Pro Team00:30:00  +  00:01:45=45,000 
38 SUIMichael SchärUSABMC Racing Team00:30:00  +  00:01:45=45,000 
39 FRAPierre-Roger LatourFRAAg2r La Mondiale00:30:00  +  00:01:45=45,000 
40 FRAElie GesbertFRAFortuneo - Vital Concept00:30:00  +  00:01:45=45,000 
41 BELThomas De GendtBELLotto Soudal00:30:01  +  00:01:46=44,975 
42 FRABrice FeilluFRAFortuneo - Vital Concept00:30:01  +  00:01:46=44,975 
43 CZEZdenek StybarBELQuick-Step Floors00:30:02  +  00:01:47=44,950 
44 ENGDaniel MartinBELQuick-Step Floors00:30:07  +  00:01:52=44,826 
45 FRAMaxime BouetFRAFortuneo - Vital Concept00:30:07  +  00:01:52=44,826 
46 ITADiego UlissiUAEUAE Team Emirates00:30:07  +  00:01:52=44,826 
47 SUIDanilo WyssUSABMC Racing Team00:30:07  +  00:01:52=44,826 
48 LUXBen GastauerFRAAg2r La Mondiale00:30:07  +  00:01:52=44,826 
49 FRANicolas EdetFRACofidis – Solutions Crédits00:30:09  +  00:01:54=44,776 
50 NEDAlbert TimmerDEUTeam Sunweb00:30:11  +  00:01:56=44,727 
51 AUSDamien HowsonAUSOrica - Scott00:30:11  +  00:01:56=44,727 
52 ESPHaimar ZubeldiaUSATrek - Segafredo00:30:11  +  00:01:56=44,727 
53 KAZAndrey ZeitsKAZAstana Pro Team00:30:13  +  00:01:58=44,677 
54 FRARomain SicardFRADirect Energie00:30:16  +  00:02:01=44,604 
55 BELJan BakelantsFRAAg2r La Mondiale00:30:16  +  00:02:01=44,604 
56 FRARomain BardetFRAAg2r La Mondiale00:30:18  +  00:02:03=44,554 
57 BELJulien VermoteBELQuick-Step Floors00:30:18  +  00:02:03=44,554 
58 FRAFlorian VachonFRAFortuneo - Vital Concept00:30:22  +  00:02:07=44,457 
59 FRAAmaël MoinardUSABMC Racing Team00:30:23  +  00:02:08=44,432 
60 DENMichael ValgrenKAZAstana Pro Team00:30:25  +  00:02:10=44,384 
61 UKRAndriy GrivkoKAZAstana Pro Team00:30:25  +  00:02:10=44,384 
62 BELSerge PauwelsZAFDimension Data00:30:26  +  00:02:11=44,359 
63 ITAMarco MarcatoUAEUAE Team Emirates00:30:26  +  00:02:11=44,359 
64 GERRobert WagnerNLDTeam Lotto NL - Jumbo00:30:34  +  00:02:19=44,166 
65 CZERoman KreuzigerAUSOrica - Scott00:30:34  +  00:02:19=44,166 
66 FRARomain HardyFRAFortuneo - Vital Concept00:30:34  +  00:02:19=44,166 
67 USAAndrew TalanskyUSACannondale-Drapac Pro Cycling ..00:30:35  +  00:02:20=44,142 
68 ESPMikel NieveGBRSky Procycling00:30:38  +  00:02:23=44,070 
69 PORTiago PintoCHETeam Katusha - Alpecin00:30:40  +  00:02:25=44,022 
70 BELThomas DegandBELWanty – Groupe Gobert00:30:40  +  00:02:25=44,022 
71 FRAAxel DomontFRAAg2r La Mondiale00:30:40  +  00:02:25=44,022 
72 GEREmanuel BuchmannDEUBora–Hansgrohe00:30:41  +  00:02:26=43,998 
73 GERMarcus BurghardtDEUBora–Hansgrohe00:30:41  +  00:02:26=43,998 
74 SUIMichael AlbasiniAUSOrica - Scott00:30:41  +  00:02:26=43,998 
75 FRAJulien SimonFRACofidis – Solutions Crédits00:30:42  +  00:02:27=43,974 
76 BELJens KeukeleireAUSOrica - Scott00:30:43  +  00:02:28=43,950 
77 ESPMarkel IrizarUSATrek - Segafredo00:30:43  +  00:02:28=43,950 
78 AUSMichael MatthewsDEUTeam Sunweb00:30:45  +  00:02:30=43,902 
79 BELFrederik BackaertBELWanty – Groupe Gobert00:30:45  +  00:02:30=43,902 
80 SUIReto HollensteinCHETeam Katusha - Alpecin00:30:47  +  00:02:32=43,855 
81 BELPieter VanspeybrouckBELWanty – Groupe Gobert00:30:48  +  00:02:33=43,831 
82 NEDMike TeunissenDEUTeam Sunweb00:30:49  +  00:02:34=43,807 
83 FRAPierre-Luc PérichonFRAFortuneo - Vital Concept00:30:49  +  00:02:34=43,807 
84 GERGianluca BrambillaBELQuick-Step Floors00:30:50  +  00:02:35=43,784 
85 GERPaul MartensNLDTeam Lotto NL - Jumbo00:30:51  +  00:02:36=43,760 
86 BELGreg Van AvermaetUSABMC Racing Team00:30:51  +  00:02:36=43,760 
87 ITAAlberto BettiolUSACannondale-Drapac Pro Cycling ..00:30:51  +  00:02:36=43,760 
88 POLPawel PoljanskiDEUBora–Hansgrohe00:30:59  +  00:02:44=43,572 
89 NEDRamon SinkeldamDEUTeam Sunweb00:30:59  +  00:02:44=43,572 
90 FRARudy MolardFRAFDJ00:30:59  +  00:02:44=43,572 
91 NEDKoen De KortUSATrek - Segafredo00:31:00  +  00:02:45=43,548 
92 ESPLuis Angel MateFRACofidis – Solutions Crédits00:31:00  +  00:02:45=43,548 
93 NEDMarco MinnaardBELWanty – Groupe Gobert00:31:00  +  00:02:45=43,548 
94 GERRick ZabelCHETeam Katusha - Alpecin00:31:00  +  00:02:45=43,548 
95 ENGScott ThwaitesZAFDimension Data00:31:01  +  00:02:46=43,525 
96 FRAAngelo TulikFRADirect Energie00:31:02  +  00:02:47=43,502 
97 FRACyril LemoineFRACofidis – Solutions Crédits00:31:02  +  00:02:47=43,502 
98 GERSimon GeschkeDEUTeam Sunweb00:31:02  +  00:02:47=43,502 
99 ITAAlessandro De MarchiUSABMC Racing Team00:31:05  +  00:02:50=43,432 
100 ITAFabio SabatiniBELQuick-Step Floors00:31:05  +  00:02:50=43,432 
101 ITADaniele BennatiESPMovistar Team00:31:05  +  00:02:50=43,432 
102 SLOGrega BoleBHRBahrain-Merida00:31:09  +  00:02:54=43,339 
103 FRAChristophe LaporteFRACofidis – Solutions Crédits00:31:09  +  00:02:54=43,339 
104 WALLuke RoweGBRSky Procycling00:31:09  +  00:02:54=43,339 
105 FRACyril GautierFRAAg2r La Mondiale00:31:11  +  00:02:56=43,292 
106 FRAFlorian SénéchalFRACofidis – Solutions Crédits00:31:15  +  00:03:00=43,200 
107 ITASonny ColbrelliBHRBahrain-Merida00:31:15  +  00:03:00=43,200 
108 BELGuillaume Van KeirsbulckBELWanty – Groupe Gobert00:31:19  +  00:03:04=43,108 
109 ESPDaniel NavarroFRACofidis – Solutions Crédits00:31:20  +  00:03:05=43,085 
110 FRAGuillaume MartinBELWanty – Groupe Gobert00:31:20  +  00:03:05=43,085 
111 JPNYukiya ArashiroBHRBahrain-Merida00:31:20  +  00:03:05=43,085 
112 FRALaurent PichonFRAFortuneo - Vital Concept00:31:22  +  00:03:07=43,039 
113 GERChristian KneesGBRSky Procycling00:31:22  +  00:03:07=43,039 
114 DDRRüdiger SeligDEUBora–Hansgrohe00:31:22  +  00:03:07=43,039 
115 NOREdvald Boasson HagenZAFDimension Data00:31:22  +  00:03:07=43,039 
116 SUIMathias FrankFRAAg2r La Mondiale00:31:23  +  00:03:08=43,016 
117 ESPJesus HerradaESPMovistar Team00:31:24  +  00:03:09=42,994 
118 ARGEduardo SepulvedaFRAFortuneo - Vital Concept00:31:25  +  00:03:10=42,971 
119 BELJürgen RoelandtsBELLotto Soudal00:31:26  +  00:03:11=42,948 
120 NZLPaddy BevinUSACannondale-Drapac Pro Cycling ..00:31:35  +  00:03:20=42,744 
121 FRAYoann OffredoBELWanty – Groupe Gobert00:31:36  +  00:03:21=42,722 
122 AUSSimon ClarkeUSACannondale-Drapac Pro Cycling ..00:31:37  +  00:03:22=42,699 
123 SLOJanez BrajkovicBHRBahrain-Merida00:31:37  +  00:03:22=42,699 
124 GERAndré GreipelBELLotto Soudal00:31:37  +  00:03:22=42,699 
125 NEDMaurits LammertinkCHETeam Katusha - Alpecin00:31:38  +  00:03:23=42,677 
126 AUTMichael GoglUSATrek - Segafredo00:31:39  +  00:03:24=42,654 
127 FRAPerrig QuemeneurFRADirect Energie00:31:40  +  00:03:25=42,632 
128 KAZBakhtiyar KozhatayevKAZAstana Pro Team00:31:40  +  00:03:25=42,632 
129 USANathan BrownUSACannondale-Drapac Pro Cycling ..00:31:40  +  00:03:25=42,632 
130 FRAOlivier Le GacFRAFDJ00:31:40  +  00:03:25=42,632 
131 ITAAndrea PasqualonBELWanty – Groupe Gobert00:31:41  +  00:03:26=42,609 
132 HRVKristijan DurasekUAEUAE Team Emirates00:31:42  +  00:03:27=42,587 
133 COLSergio Luis HenaoGBRSky Procycling00:31:42  +  00:03:27=42,587 
134 NZLDion SmithBELWanty – Groupe Gobert00:31:42  +  00:03:27=42,587 
135 NORVegard Stake LaengenUAEUAE Team Emirates00:31:42  +  00:03:27=42,587 
136 ENGStephen CummingsZAFDimension Data00:31:45  +  00:03:30=42,520 
137 HRVRobert KiserlovskiCHETeam Katusha - Alpecin00:31:46  +  00:03:31=42,497 
138 NEDLaurens ten DamDEUTeam Sunweb00:31:46  +  00:03:31=42,497 
139 ITADavide CimolaiFRAFDJ00:31:47  +  00:03:32=42,475 
140 SLOBorut BozicBHRBahrain-Merida00:31:53  +  00:03:38=42,342 
141 FRAThomas VoecklerFRADirect Energie00:31:55  +  00:03:40=42,298 
142 RSAJaco VenterZAFDimension Data00:31:55  +  00:03:40=42,298 
143 BELOliver NaesenFRAAg2r La Mondiale00:31:56  +  00:03:41=42,276 
144 GERJohn DegenkolbUSATrek - Segafredo00:31:59  +  00:03:44=42,209 
145 NEDDylan GroenewegenNLDTeam Lotto NL - Jumbo00:32:02  +  00:03:47=42,144 
146 FRAPierre RollandUSACannondale-Drapac Pro Cycling ..00:32:04  +  00:03:49=42,100 
147 FRAAdrien PetitFRADirect Energie00:32:04  +  00:03:49=42,100 
148 RSAReinardt Janse Van RensburgZAFDimension Data00:32:06  +  00:03:51=42,056 
149 ETHTsgabu Gebremaryan GrmayBHRBahrain-Merida00:32:06  +  00:03:51=42,056 
150 FRAThomas BoudatFRADirect Energie00:32:08  +  00:03:53=42,012 
151 AUTBernhard EiselZAFDimension Data00:32:12  +  00:03:57=41,925 
152 AUSAdam HansenBELLotto Soudal00:32:13  +  00:03:58=41,904 
153 AUTMarco HallerCHETeam Katusha - Alpecin00:32:13  +  00:03:58=41,904 
154 ENGBen SwiftUAEUAE Team Emirates00:32:14  +  00:03:59=41,882 
155 FRAYohann GèneFRADirect Energie00:32:20  +  00:04:05=41,753 
156 COLDarwin AtapumaUAEUAE Team Emirates00:32:21  +  00:04:06=41,731 
157 AUSMathew HaymanAUSOrica - Scott00:32:24  +  00:04:09=41,667 
158 COLJohan Esteban ChavesAUSOrica - Scott00:32:26  +  00:04:11=41,624 
159 NEDRoy CurversDEUTeam Sunweb00:32:26  +  00:04:11=41,624 
160 FRANacer BouhanniFRACofidis – Solutions Crédits00:32:38  +  00:04:23=41,369 
161 NEDTom LeezerNLDTeam Lotto NL - Jumbo00:32:39  +  00:04:24=41,348 
162 BELDimitri ClaeysFRACofidis – Solutions Crédits00:32:39  +  00:04:24=41,348 
163 CRCAndrey AmadorESPMovistar Team00:32:40  +  00:04:25=41,327 
164 NORAlexander KristoffCHETeam Katusha - Alpecin00:32:47  +  00:04:32=41,179 
165 ESPJavier Moreno BazánBHRBahrain-Merida00:32:53  +  00:04:38=41,054 
166 ITAMatteo BonoUAEUAE Team Emirates00:33:00  +  00:04:45=40,909 
167 COLJarlinson Pantano GomezUSATrek - Segafredo00:33:25  +  00:05:10=40,399 


Todays birthdays.

1887  Charles Ponson
1913  Raymond Lemarie
1928  Jacques Dupont
1951  Francesco Moser
1959  Laurent Biondi
1975  Bert Grabsch
1987  Sacha Modolo




Visits: